User: anonymous   Login
Location: Norwich
(52.6280°N, 1.3030°E)
Time: 17:45:17
(UTC+01:00)
Language:

APEX - Orbit

View from above orbital plane
View from above orbital plane
View from above satellite
View from above satellite

Ground track
Ground track

The orbit data is extracted from the following two-line orbital elements,

1 23191U 94046A   17142.90167348 +.00004460 +00000-0 +14842-3 0  9998
2 23191 069.9245 278.1699 0607301 281.0951 072.2500 14.37785519112884
Epoch (UTC): 22 May 2017 21:38:24
Eccentricity: 0.0607301
inclination: 69.9245°
perigee height: 332 km
apogee height: 1199 km
right ascension of ascending node: 278.1699°
argument of perigee: 281.0951°
revolutions per day: 14.37785519
mean anomaly at epoch: 72.2500°
orbit number at epoch: 11288

The dashed part of the orbit path shows where the satellite is in the earth's shadow,  

DLR